Regional Weather Roundup
Issued by NWS Wakefield, VA

Home | Current Version | Previous Version | Text Only | Print | Product List | Glossary Off
Versions: 1 2 3 4 5 6 7 8 9 10 11 12 13 14 15 16 17 18 19 20 21 22 23 24 25 26 27 28 29 30 31 32 33 34 35 36 37 38 39 40 41 42 43 44 45 46 47 48 49 50

000
ASUS41 KAKQ 110115
RWRAKQ

REGIONAL WEATHER ROUNDUP
NATIONAL WEATHER SERVICE WAKEFIELD VA
800 PM EST WED FEB 10 2016

Note: "fair" indicates few or no clouds below 12,000 feet with no
significant weather and/or obstructions to visibility. * = Denotes
station may not report precipitation (e.g., rain,snow,etc.),
thunder or fog.

VAZ042-051-052>054-056-110200-
NORTHERN VIRGINIA

CITY           SKY/WX    TMP DP  RH WIND       PRES   REMARKS
WASH NATIONAL  CLOUDY    28  11  48 NW13G21   29.92R WCI  17
DULLES         CLOUDY    25  10  53 NW14      29.91R WCI  13
FORT BELVOIR   CLOUDY    27  10  47 NW16      29.92R WCI  15
QUANTICO       CLOUDY    29  12  49 NW13      29.95R WCI  19
FREDERICKSBRG* CLOUDY    29  14  53 NW15      29.93R WCI  17
STAFFORD*      CLOUDY    27  12  54 NW15      29.97R WCI  15
WARRENTON      CLOUDY    28  14  56 W10G20    29.92S WCI  18
CULPEPER*      CLOUDY    26   8  47 W5        29.94R
MANASSAS*      CLOUDY    27  14  59 NW10      29.92S WCI  17
LEESBURG*      CLOUDY    27  18  69 NW18G29   29.91S WCI  13
WINCHESTER     CLOUDY    25  12  58 W12       29.90R WCI  14
FRONT ROYAL*   CLOUDY    25   9  50 W6        29.90R
LURAY*         CLOUDY    23   5  46 W9G16     29.91R
$$

VAZ048-049-060>072-079>083-110200-
CENTRAL AND SOUTH CENTRAL VIRGINIA

CITY           SKY/WX    TMP DP  RH WIND       PRES   REMARKS
RICHMOND       CLOUDY    31   8  38 W13       29.91R WCI  21
CHESTERFIELD*  MOCLDY    30   1  29 W8        29.93R
PETERSBURG*    FAIR      31   3  30 W12G17    29.94R WCI  22
HANOVER        CLOUDY    31   8  38 W15       29.92R WCI  20
TAPPAHANNOCK*  FLURRIES  30  25  80 NW6       29.90R
QUINTON*       CLOUDY    32   9  38 W13G20    29.90R WCI  22
CHARLOTTSVILLE MOCLDY    26   3  37 NW10G22   29.92R WCI  16
GORDONSVILLE*  CLOUDY    27   6  41 W6        29.92R
ORANGE*        CLOUDY    28   9  43 SW9G17    29.94R
LOUISA*        CLOUDY    27   7  43 W9G18     29.91R
BUMPASS*       CLOUDY    28   7  41 NW6       29.92R
FARMVILLE*     FAIR      28   4  37 W6        29.95R
CREWE*         FAIR      28   8  43 W7        29.94R
FORT PICKETT*  FAIR      27   6  41 W9G17     29.94R
CHASE CITY*    FAIR      27   4  37 W9        29.96R
CLARKSVILLE*   FAIR      28   9  43 W9        29.97R
SOUTH HILL*    FAIR      28   9  44 NW13      30.01R WCI  17
LAWRENCEVILLE* FAIR      28   9  45 W5        29.94R
EMPORIA*       FAIR      30  10  43 W8G18     29.97R
$$

VAZ088>098-110200-
SOUTHEAST VIRGINIA

CITY           SKY/WX    TMP DP  RH WIND       PRES   REMARKS
NORFOLK        CLOUDY    38  15  39 W8G20     29.87R
VIRGINIA BEACH CLOUDY    42  15  33 W14       29.87R
NORFOLK NAVAL  CLOUDY    37  15  40 W24       29.90R
WEST POINT*    CLOUDY    34  13  42 W14       29.90S WCI  25
SALUDA*        CLOUDY    35  15  44 W13G21    29.87R
NEWPORT NEWS   CLOUDY    35  14  42 W17G25    29.89R WCI  25
LANGLEY AFB    CLOUDY    36  15  42 W16G22    29.87R
FORT EUSTIS    CLOUDY    35  13  40 W17G26    29.88R WCI  24
WILLIAMSBURG*  CLOUDY    37  16  41 W14       29.91R
HR EXEC AP*    CLOUDY    37  16  41 W10G17    29.91R
FRANKLIN*      CLOUDY    34  12  40 NW20G25   29.93R WCI  22
US460-WAKEFLD  CLOUDY    33   9  36 W9G23     29.93R
$$

VAZ020-022-025-037-045-110200-
WEST CENTRAL AND SOUTHWEST VIRGINIA

CITY           SKY/WX    TMP DP  RH WIND       PRES   REMARKS
STAUNTON*      FAIR      25   6  43 NW5       29.93R
WAYNESBORO*    FAIR      20   0  40 NW7       29.89R
HOT SPRINGS VA CLOUDY    10   3  74 W16G25    29.71R WCI  -8
LYNCHBURG      FAIR      22   6  50 CALM      29.96R
DANVILLE       FAIR      27   9  46 NW10      30.00R WCI  17
SOUTH BOSTON*  FAIR      27   5  39 W8G18     29.98R
MARTINSVILLE   CLOUDY    23   7  51 W7        30.01R
ROANOKE        MOCLDY    22   4  46 NW14G25   29.99R WCI   9
BLACKSBURG     CLOUDY    19   8  64 W10G17    29.93R WCI   7
DUBLIN*        CLOUDY    20   9  63 W13       29.93R WCI   7
MARION*        FAIR      16   5  60 W20G25    29.93R WCI   0
HILLSVILLE*    MOCLDY    16   6  66 W18       29.86R WCI  -1
RICHLANDS*     CLOUDY    13   3  64 NW12G18   29.94R WCI  -1
WISE*          MOCLDY    14   1  57 W10G16    29.97R WCI   1
ABINGDON*      FAIR      19   5  53 W7        29.99R
$$

MDZ021>025-VAZ099-100-110200-
SOUTHERN MARYLAND AND THE DELMARVA PENINSULA

CITY           SKY/WX    TMP DP  RH WIND       PRES   REMARKS
PATUXENT RIVER LGT SNOW  29  20  69 NW20G28   29.88R FOG     WCI  16
BAY BRIDGE APT   N/A     32  12  43 W16G24    29.87R WCI  21
LEONARDTOWN    CLOUDY    28  19  69 NW8       29.90R
DOVER          MOCLDY    31  19  60 W8        29.82R
GEORGETOWN     CLOUDY    33  17  51 NW7       29.84R
EASTON         PTCLDY    32  16  51 NW12      29.89R WCI  23
CAMBRIDGE      CLOUDY    32  14  47 NW13G23   29.86R WCI  22
SALISBURY      CLOUDY    34  20  56 N8        29.83R
OCEAN CITY     CLOUDY    29  23  78 CALM      29.83S
WALLOPS ISLAND CLOUDY    33  24  69 SW5       29.83F
ACCOMACK*      CLOUDY    34  23  64 W15       29.84S WCI  24
$$

NCZ012>017-030>032-110200-
NORTH CENTRAL AND EASTERN NORTH CAROLINA

CITY           SKY/WX    TMP DP  RH WIND       PRES   REMARKS
ROANOKE RAPIDS MOCLDY    32  12  43 W10G21    29.96R WCI  24
RALEIGH        PTCLDY    30   7  37 NW8       29.99R
ELIZABETH CITY CLOUDY    36  19  50 W10       29.90S
AHOSKIE*       CLOUDY    34  13  41 NW9       29.94R
EDENTON*       CLOUDY    40  20  45 W10       29.92R
CURRITUCK*     MOCLDY    38  20  48 W6        29.90R
KILL DEVIL HLS CLOUDY    39  19  44 W10G21    29.89R
MANTEO         CLOUDY    38  20  48 W13G20    29.91R
CAPE HATTERAS  CLOUDY    40  18  41 W12G22    29.93R
TARBORO*       CLOUDY    37  16  42 NW15G24   29.96R
GOLDSBORO      CLEAR     32  18  55 SW9       29.96R
WASHINGTON     CLOUDY    37  19  47 W8        29.94S
GREENVILLE     MOCLDY    36  18  48 W9        29.97R
NEW BERN       MOCLDY    37  16  42 W14G23    29.98R
WILMINGTON     CLEAR     35  17  47 W8        30.03R
$$

VAZ048-110200-
ELSEWHERE

CITY           SKY/WX    TMP DP  RH WIND       PRES   REMARKS
HARRISBURG PA  CLOUDY    26  13  57 W16G23    29.84R WCI  14
BALTIMORE      CLOUDY    27  11  51 W22G30    29.87R WCI  13
ANNAPOLIS      CLOUDY    29  14  53 NW14G24   29.88R WCI  18
ANDREWS AFB    CLOUDY    27  11  51 NW21      29.88R WCI  13
PHILADELPHIA   CLOUDY    32  13  45 W15       29.82S WCI  22
HENDERSON NC   CLEAR     28   7  42 NW8       29.97R
GREENSBORO     CLEAR     26   5  40 W15G24    29.98R WCI  14
ROCKY MOUNT    MOCLDY    34  12  40 W16G24    29.97R WCI  24
$$

VAZ100-110200-
MARINE

STATION/POSITION TIME  TEMP    WIND        PRES    WAVE   SWELL
                       AIR SEA DIR/SP/G            HT/PER HT/PER
                 (UTC) (F)     (DEG/KT/KT) (MB)    (FT/S) (FT/S)
BRANDYWINE LGT   0000   33                 1009.6R
CAPE MAY NJ      0000   34 41              1009.4R
LEWES DE         0000   35 41              1009.8R
15NM E FENWICK I 0050   36 43              1009.7R   4/14
OCEAN-CITY-INLET 0000   35 41              1009.2R
WACHAPREAGUE VA  0000   35 44              1010.3R
GOOSES REEF MD   0000   33 39  320/ 19/ 25 1011.7R   2/ 3
COVE POINT MD    0000   32                 1011.0R
SOLOMONS ISLAND  0000   33 41                N/A
BISHOPS HEAD MD  0000   38 40              1009.1R
PINEY POINT MD   0000          340/ 27/ 31   N/A
POTOMAC MD       0000   38 40  300/ 12/ 14 1009.2R
CAMBRIDGE MD     0000   35 40              1009.5R
LEWISETTA VA     0000   38 41              1010.2R
RAPPAHANNOCK LGT 0000                      1010.4R
STINGRAY PT      0000   39 42  270/ 19/ 27 1010.4R   0
YORK RVR RNG VA  0000   39                 1010.0R
YORKTOWN VA      0000   38 43              1010.9R
JAMESTOWN VA     0000   36 44  270/ 19/ 25   N/A     1
DOMINION TERM VA 0000   39                 1011.2R
KIPTOPEKE VA     0000      42                N/A
CHES BAY BRIDGE  0000   39 42              1010.6R
CAPE HENRY VA    0000   38                   N/A
CHESAPEAKE LGHT  0000   40     270/ 20/ 22 1011.4R
WILLOUBY STN VA  0000   39                 1011.7R
CAPE HENRY BUOY  0028      44                N/A     4/13   2/13
1ST LANDING BUOY 0000      42                N/A     2/ 3
CAPE CHARLES BUO 0026      43                N/A     4/ 4   3/13
OFFSHORE WE BUOY 0021      46                N/A     4/13   3/13
64NM E OF VA BCH 0050   42 49  290/ 17/ 21 1010.5R   5/12   3/12
DUCK PIER NC     0000   39                 1011.5R
44100 DUCK FRF   0024      47                N/A     4/13   3/13
44056 DUCK FRF   0011      44                N/A     3/13   3/13
OREGON INLET NC  0000   39 44              1012.4R
HATTERAS NC      0000   41 49              1012.5R
DIAMOND SHLS NC  0050   44 72  280/ 21/ 27 1013.0R   5/13   3/13
$$



USA.gov is the U.S. government's official web portal to all federal, state and local government web resources and services.